Location: Bijele Vode
(45.2833°N, 16.2000°E)
Time: 22:13:35
(UTC+00:00)

Cosmos 1125 Rocket - Pass Details

Date: 26 January 2021
Orbit: 757 x 780 km, 74.0° (Epoch: 08 March)

Event Time Altitude Azimuth Distance (km) Brightness Sun altitude
Exits shadow 05:37:37 - 327° (NNW) 3,022 6.1 -8.1°
Reaches altitude 10° 05:39:34 10° 319° (NW) 2,338 5.5 -7.8°
Maximum altitude 05:44:08 30° 260° (W) 1,365 4.4 -7.0°
Drops below altitude 10° 05:48:43 10° 200° (SSW) 2,328 6.0 -6.2°
Sets 05:51:19 0° 190° (S) 3,251 6.9 -5.8°
